{"data":{"norad_id":55750,"intl_designator":"2023-028K","name":"STARLINK-5573","alt_names":[],"object_type":"PAYLOAD","status":"ACTIVE","operator":null,"country":"US","launch_date":"2023-03-03","launch_site_code":"AFWTR","launch_vehicle":null,"mission":null,"orbit_class":"UNKNOWN","rcs_meters":null,"size_class":null,"mass_kg":null,"dimensions":null,"purposes":["comms"],"wikipedia_slug":null,"has_3d_model":false,"image_url":null,"decayed_at":null,"tle_current":{"epoch":"2026-09-20T22:00:03.000096Z","epoch_age_seconds":67148,"freshness":"FRESH","line1":"1 55750U 23028K   26263.91670139  .00057444  00000+0  42467-2 0  9990","line2":"2 55750  70.0010 112.2190 0002401 267.2510  93.1231 15.02880142  5766","mean_motion":15.02880142,"eccentricity":0.0002401,"inclination_deg":70.001,"raan_deg":112.219,"arg_perigee_deg":267.251,"mean_anomaly_deg":93.1231,"bstar":0.0042467,"rev_number":576,"period_min":95.816024163023,"perigee_km":556.3550938502,"apogee_km":559.68583666502,"semimajor_km":6936.1574652576,"source":"CELESTRAK","updated_at":"2026-09-21T09:00:33.312910Z"}}}